{"data":{"norad_id":68844,"intl_designator":"2026-094F","name":"STARLINK-37538","alt_names":[],"object_type":"PAYLOAD","status":"ACTIVE","operator":null,"country":"US","launch_date":"2026-04-26","launch_site_code":"AFWTR","launch_vehicle":null,"mission":null,"orbit_class":"UNKNOWN","rcs_meters":null,"size_class":null,"mass_kg":null,"dimensions":null,"purposes":["comms"],"wikipedia_slug":null,"has_3d_model":false,"image_url":null,"decayed_at":null,"tle_current":{"epoch":"2026-05-25T04:00:03.998880Z","epoch_age_seconds":56696,"freshness":"FRESH","line1":"1 68844U 26094F   26145.16671295  .00001896  00000+0  36541-4 0  9992","line2":"2 68844  97.2851 159.8520 0001484  88.7689 312.4785 15.49170392  5676","mean_motion":15.49170392,"eccentricity":0.0001484,"inclination_deg":97.2851,"raan_deg":159.852,"arg_perigee_deg":88.7689,"mean_anomaly_deg":312.4785,"bstar":3.6541e-5,"rev_number":567,"period_min":92.952977118349,"perigee_km":418.14298092371,"apogee_km":420.16041620945,"semimajor_km":6797.2886985666,"source":"CELESTRAK","updated_at":"2026-05-25T13:38:22.046588Z"}}}